Hourly Weather Roundup
Issued by NWS Central Illinois

Home | Current Version | Previous Version | Graphics & Text | Print | Product List | Glossary On
Versions: 1 2 3 4 5 6 7 8 9 10 11 12 13 14 15 16 17 18 19 20 21 22 23 24 25 26 27 28 29 30 31 32 33 34 35 36 37 38 39 40 41 42 43 44 45 46 47 48 49 50
000
NZUS43 KILX 200310
HWRILX

AREA WEATHER ROUNDUP
NATIONAL WEATHER SERVICE, LINCOLN IL
900 PM CST FRI DEC 19 2014


CITY           SKY/WX    TMP DP  RH WIND       PRES   REMARKS
BLOOMINGTON    MOCLDY    25  24  96 CALM      30.26F
CHAMPAIGN      CLOUDY    26  23  88 E6        30.26F WCI  19
DECATUR        CLOUDY    29  25  85 CALM      30.27S
FLORA          CLOUDY    32  26  80 CALM      30.27F
GALESBURG      CLOUDY    29  24  80 E6        30.25S WCI  23
JACKSONVILLE   CLOUDY    33  28  83 E7        30.26F WCI  27
LACON          CLOUDY    28  24  82 CALM      30.27S
LAWRENCEVILLE  CLOUDY    31  25  78 NE6       30.27F WCI  25
LITCHFIELD     CLOUDY    31  24  73 E5        30.26S WCI  27
$$


CITY           SKY/WX    TMP DP  RH WIND       PRES   REMARKS
LINCOLN        MOCLDY    30  27  87 E3        30.28S
MACOMB         CLOUDY    30  26  84 S3        30.28R
MATTOON        CLOUDY    29  23  78 E6        30.25F WCI  23
MT CARMEL AP   CLOUDY    32  30  93 CALM      30.27F
OLNEY-NOBLE AP CLOUDY    32  27  80 CALM      30.27F
PARIS          CLOUDY    31  28  89 CALM      30.27F
PEORIA         MOCLDY    29  21  72 E6        30.26F WCI  23
PONTIAC        CLOUDY    25  24  95 CALM      30.28F
RANTOUL        CLOUDY    29  27  92 CALM      30.26F
ROBINSON       CLOUDY    31  27  83 E3        30.29S
SPRINGFIELD    CLOUDY    32  25  75 CALM      30.27S
TAYLORVILLE    CLOUDY    30  27  86 CALM      30.27S
$$

...REGIONAL REPORTS...


CITY           SKY/WX    TMP DP  RH WIND       PRES   REMARKS
CHICAGO O`HARE CLOUDY    30  21  69 N5        30.26F WCI  25
KANKAKEE       CLOUDY    30  27  88 CALM      30.28F
MOLINE         CLOUDY    28  23  81 E8        30.26F WCI  20
MOUNT VERNON   CLOUDY    34  23  64 NE3       30.27S
PITTSFIELD     CLOUDY    33  29  86 E3        30.26S
QUINCY         CLOUDY    32  26  78 SE8       30.25R WCI  25
ROCKFORD       CLOUDY    28  22  78 SE5       30.29S WCI  23
$$


CITY           SKY/WX    TMP DP  RH WIND       PRES   REMARKS
BURLINGTON     CLOUDY    31  24  75 SE5       30.25S WCI  26
CEDAR RAPIDS   CLOUDY    29  23  78 S5        30.22S WCI  24
DES MOINES     CLOUDY    32  29  88 SE9       30.20S FOG     WCI  24
KIRKSVILLE     CLOUDY    32  31  96 SE8       30.23S FOG     WCI  25
OTTUMWA        CLOUDY    30  25  81 SE7       30.23S WCI  23
ST LOUIS       CLOUDY    36  28  73 E8        30.26S WCI  30
$$


CITY           SKY/WX    TMP DP  RH WIND       PRES   REMARKS
TERRE HAUTE    CLOUDY    31  24  75 E5        30.28S WCI  26
EVANSVILLE     CLOUDY    33  25  72 NE5       30.27F WCI  29
INDIANAPOLIS   CLOUDY    29  24  82 NE3       30.25F
LAFAYETTE      CLOUDY    28  26  92 CALM      30.28F
MADISON        CLOUDY    24  20  84 SE6       30.24F WCI  17
MILWAUKEE      MOCLDY    28  18  66 CALM      30.27S
$$





USA.gov is the U.S. government's official web portal to all federal, state and local government web resources and services.